Weather History for Corpus Christi, TX

Change the Weather History Date:

Saturday, January 22, 2011

  Actual Average Record
Temperature  
Mean Temperature 47 °F 57 °F  
Max Temperature 60 °F 67 °F 89 °F (1972)
Min Temperature 33 °F 47 °F 20 °F (1930)
Degree Days  
Heating Degree Days 18 9  
Month to date heating degree days 231 198  
Since 1 July heating degree days 550 549  
Cooling Degree Days 0 1  
Month to date cooling degree days 3 22  
Year to date cooling degree days 3 22  
Moisture  
Dew Point 39 °F    
Average Humidity 74    
Maximum Humidity 100    
Minimum Humidity 47    
Precipitation  
Precipitation 0.00 in 0.06 in 1.36 in (1975)
Month to date precipitation 3.40 1.10  
Year to date precipitation 3.40 1.10  
Snow  
Snow 0.00 in - - ()
Month to date snowfall 0.0  
Since 1 July snowfall 0.0  
Snow Depth 0.00 in    
Sea Level Pressure  
Sea Level Pressure 30.08 in    
Wind  
Wind Speed 6 mph (South)    
Max Wind Speed 16 mph    
Max Gust Speed 20 mph    
Visibility 10 miles    
Events      
T = Trace of Precipitation, MM = Missing Value Source: NWS Daily Summary

Daily Weather History Graph

Daily Weather History Graph

Search for Another Location

Airport:

Trip Planner

Search our weather history database for the weather conditions in past years. The results will help you decide how hot, cold, wet, or windy it might be!

Date:

Astronomy

Jan. 22, 2011 Rise Set
Actual Time 7:20 AM CST 6:02 PM CST
Civil Twilight 6:55 AM CST 6:27 PM CST
Nautical Twilight 6:27 AM CST 6:55 PM CST
Astronomical Twilight 5:59 AM CST 7:24 PM CST
Moon 9:28 PM CST (1/22) 9:08 AM CST (1/22)
Length of Visible Light 11h 31m
Length of Day
10h 41m
Waning Gibbous, 89% of the Moon is Illuminated
Jan 22
Waning Gibbous
Jan 26
Last Quarter
Feb 2
New
Feb 11
First Quarter
Feb 18
Full

Hourly Weather History & Observations

Time (CST) Temp. Windchill Dew Point Humidity Pressure Visibility Wind Dir Wind Speed Gust Speed Precip Events Conditions
12:51 AM 39.0 °F 34.8 °F 37.0 °F 93% 30.13 in 10.0 mi West 5.8 mph - N/A   Clear
1:51 AM 37.9 °F 34.4 °F 36.0 °F 93% 30.12 in 10.0 mi WNW 4.6 mph - N/A   Clear
2:51 AM 37.9 °F 33.5 °F 36.0 °F 93% 30.13 in 10.0 mi WNW 5.8 mph - N/A   Clear
3:51 AM 37.0 °F 32.4 °F 36.0 °F 96% 30.13 in 10.0 mi WNW 5.8 mph - N/A   Clear
4:51 AM 36.0 °F 32.1 °F 35.1 °F 97% 30.13 in 10.0 mi NW 4.6 mph - N/A   Clear
5:51 AM 36.0 °F - 34.0 °F 93% 30.14 in 10.0 mi Calm Calm - N/A   Clear
6:51 AM 35.1 °F 32.2 °F 34.0 °F 96% 30.16 in 10.0 mi NNW 3.5 mph - N/A   Clear
7:51 AM 35.6 °F - 33.8 °F 93% 30.16 in 10.0 mi Calm Calm - N/A   Partly Cloudy
8:51 AM 41.0 °F 39.0 °F 39.2 °F 93% 30.17 in 10.0 mi North 3.5 mph - N/A   Partly Cloudy
9:51 AM 44.6 °F - 41.0 °F 87% 30.17 in 10.0 mi Calm Calm - N/A   Partly Cloudy
10:51 AM 48.2 °F - 42.8 °F 82% 30.18 in 10.0 mi Calm Calm - N/A   Partly Cloudy
11:51 AM 51.1 °F - 39.0 °F 63% 30.16 in 10.0 mi Calm Calm - N/A   Clear
12:51 PM 54.0 °F - 37.0 °F 53% 30.11 in 10.0 mi SW 3.5 mph - N/A   Clear
1:51 PM 57.0 °F - 39.0 °F 51% 30.06 in 10.0 mi Calm Calm - N/A   Clear
2:51 PM 59.0 °F - 39.9 °F 49% 30.04 in 10.0 mi SSE 8.1 mph - N/A   Clear
3:51 PM 59.0 °F - 39.9 °F 49% 30.02 in 10.0 mi SSE 11.5 mph - N/A   Clear
4:51 PM 57.0 °F - 37.9 °F 49% 30.00 in 10.0 mi SE 13.8 mph - N/A   Clear
5:51 PM 52.0 °F - 35.1 °F 53% 29.99 in 10.0 mi SE 15.0 mph - N/A   Clear
6:51 PM 46.9 °F - 41.0 °F 80% 29.98 in 10.0 mi SE 9.2 mph - N/A   Clear
7:51 PM 46.0 °F 42.5 °F 42.1 °F 86% 29.99 in 10.0 mi SE 6.9 mph - N/A   Clear
8:51 PM 45.0 °F 40.1 °F 42.1 °F 90% 29.98 in 10.0 mi SE 9.2 mph - N/A   Clear
9:51 PM 46.9 °F - 44.1 °F 90% 29.96 in 10.0 mi SSE 9.2 mph - N/A   Clear
10:51 PM 46.9 °F - 45.0 °F 93% 29.96 in 10.0 mi SSE 10.4 mph - N/A   Clear
11:51 PM 46.0 °F 42.5 °F 44.1 °F 93% 29.95 in 10.0 mi SSE 6.9 mph - N/A   Clear